Regional Weather Roundup
Issued by NWS

Home | Current Version | Previous Version | Graphics & Text | Print | Product List | Glossary On
Versions: 1 2 3 4 5 6 7 8 9 10 11 12 13 14 15 16 17 18 19 20 21 22 23 24 25 26 27 28 29 30 31 32 33 34 35 36 37 38 39 40 41 42 43 44 45 46 47 48 49 50
000
ASUS45 KBOI 050210
RWRID

IDAHO REGIONAL WEATHER ROUNDUP
NATIONAL WEATHER SERVICE BOISE ID
700 PM MST SUN DEC 04 2016

NOTE: "FAIR" INDICATES FEW OR NO CLOUDS BELOW 12000 FEET
WITH NO SIGNIFICANT WEATHER AND/OR OBSTRUCTIONS TO VISIBILITY

IDZ012-014-050300-
SOUTHWEST IDAHO


CITY           SKY/WX    TMP DP  RH WIND       PRES   REMARKS
BOISE          LGT RAIN  39  35  86 NW16      29.84R WCI  30
CALDWELL       CLOUDY    40  31  70 NW14      29.88R WCI  32
MOUNTAIN HOME  CLOUDY    42  40  96 NW16      29.82S
$$

IDZ016-017-050300-
SOUTHCENTRAL IDAHO


CITY           SKY/WX    TMP DP  RH WIND       PRES   REMARKS
BURLEY         LGT RAIN  45  27  49 W17G26    29.76S
JEROME         CLOUDY    41  33  73 W18G26    29.79R
TWIN FALLS     CLOUDY    47  23  38 W21G29    29.78R
$$

IDZ019>023-050300-
SOUTHEAST IDAHO


CITY           SKY/WX    TMP DP  RH WIND       PRES   REMARKS
IDAHO FALLS    CLOUDY    37  28  70 SW29G38   29.69F WCI  25
POCATELLO      LGT RAIN  38  30  73 S21G30    29.76S WCI  28
REXBURG        CLOUDY    35  29  78 SW29G40   29.63F WCI  22
$$

IDZ006-010-011-018-031-032-050300-
CENTRAL IDAHO MOUNTAINS


CITY           SKY/WX    TMP DP  RH WIND       PRES   REMARKS
MCCALL         MOCLDY    29  20  69 S10       29.76R WCI  20
HAILEY         CLOUDY    34  32  93 SE3       29.69F
STANLEY          N/A     30  25  81 NW9       29.68S WCI  22
SALMON         CLOUDY    27  25  93 CALM      29.67R
CHALLIS        CLOUDY    34  33  96 SW13      29.63R WCI  25
$$

IDZ002-004-006-007-026-050300-
NORTHERN IDAHO


CITY           SKY/WX    TMP DP  RH WIND       PRES   REMARKS
LEWISTON       MOCLDY    38  22  52 W23G31    29.91R WCI  27
LOWELL           N/A     34  32  92 CALM      29.91R
COEUR D`ALENE  MOCLDY    31  27  85 W13       29.79R WCI  21
MULLAN PASS    CLOUDY    17  15  92 NW9G21    29.59S FOG     WCI   6
$$



USA.gov is the U.S. government's official web portal to all federal, state and local government web resources and services.